Home > Weather > Denver > Past weeks

Flag for U.S.A. Weather for the Past 2 Weeks in Denver, Colorado, U.S.A.

Now
62 °F

Partly sunny.


Feels Like: 62 °F
Forecast: 35 / 58 °F
Wind: 16 mph from Northwest

Location: Buckley Air Force Base

Current Time: Feb 10, 2016 at 5:28:11 PM

Latest Report: Feb 10, 2016 at 3:58 PM


Visibility: 10 mi

Pressure: 30.01 "Hg (24.86 "Hg at 1593m altitude)

Humidity: 15%

Dew point: 14 °F

Location of DenverLocation

Historic Weather in Denver — Graph

°F

Denver Temperature Yesterday

Maximum temperature yesterday: 52 °F (at 2:58 PM)
Minimum temperature yesterday: 29 °F (at 4:58 AM)
Average temperature yesterday: 39 °F

High & Low Weather Summary for the Past Weeks

 TemperatureHumidityPressure
High65 °F (Feb 10, 2:58 PM)100% (Jan 30, 7:01 PM)30.50 "Hg (Jan 30, 7:01 PM)
Low6 °F (Feb 3, 10:58 PM)14% (Feb 10, 2:58 PM)29.33 "Hg (Jan 30, 1:58 PM)
Average32 °F59%30.08 "Hg
* Reported Jan 26 3:58 PM — Feb 10 3:58 PM, Denver, Weather by CustomWeather, © 2016

Note: Actual official high and low records may vary slightly from our data, if they occured in-between our weather recording intervals... More about our weather records

Advertising

Denver Weather History for the Previous 24 Hours

 ConditionsComfort  
Time TempWeatherWind HumidityBarometerVisibility
3:58 PM
Wed, Feb 10
62 °FPartly sunny.16 mph15%30.01 "Hg10 mi
2:58 PM65 °FScattered clouds.22 mph14%29.98 "Hg10 mi
1:58 PM65 °FScattered clouds.21 mph15%29.98 "Hg10 mi
12:58 PM64 °FPassing clouds.17 mph15%30.03 "Hg10 mi
11:58 AM62 °FPassing clouds.16 mph16%30.06 "Hg10 mi
10:58 AM61 °FPassing clouds.12 mph16%30.09 "Hg10 mi
9:58 AM56 °FPassing clouds.15 mph20%30.12 "Hg10 mi
8:58 AM49 °FPassing clouds.12 mph24%30.15 "Hg10 mi
7:58 AM43 °FPassing clouds.14 mph27%30.16 "Hg10 mi
6:58 AM39 °FPassing clouds.12 mph33%30.16 "Hg10 mi
5:58 AM40 °FPassing clouds.10 mph31%30.16 "Hg10 mi
4:58 AM39 °FClear.10 mph31%30.14 "Hg10 mi
3:58 AM38 °FClear.12 mph37%30.12 "Hg10 mi
2:58 AM39 °FClear.13 mph35%30.12 "Hg10 mi
1:58 AM38 °FClear.12 mph38%30.14 "Hg10 mi
12:58 AM38 °FClear.10 mph39%30.19 "Hg10 mi
11:58 PM
Tue, Feb 9
37 °FClear.10 mph43%30.21 "Hg10 mi
10:58 PM37 °FClear.9 mph47%30.22 "Hg10 mi
9:58 PM36 °FClear.8 mph53%30.24 "Hg10 mi
8:58 PM37 °FClear.12 mph52%30.27 "Hg10 mi
6:58 PM38 °FPassing clouds.10 mph54%30.31 "Hg10 mi
5:58 PM39 °FPassing clouds.9 mph56%30.31 "Hg10 mi
Weather by CustomWeather, © 2016

See weather overviewHow to use our weather pages